Weather History for KASD - April, 2013

Change the Weather History Date:

Friday, April 19, 2013

  Actual Average (KNEW) Record (KNEW)
Temperature  
Mean Temperature 62 °F 70 °F  
Max Temperature 77 °F 79 °F 90 °F (1987)
Min Temperature 45 °F 61 °F 45 °F (1983)
Degree Days  
Heating Degree Days 4 1  
Month to date heating degree days 29  
Since 1 July heating degree days 1274  
Cooling Degree Days 0 6  
Month to date cooling degree days 82  
Year to date cooling degree days 182  
Growing Degree Days 12 (Base 50)    
Moisture  
Dew Point 51 °F    
Average Humidity 87    
Maximum Humidity 100    
Minimum Humidity 58    
Precipitation  
Precipitation 0.89 in 0.15 in 1.68 in (1966)
Month to date precipitation 2.88  
Year to date precipitation 17.88  
Snow  
Snow 0.00 in - - ()
Month to date snowfall  
Since 1 July snowfall  
Snow Depth -    
Sea Level Pressure  
Sea Level Pressure 30.01 in    
Wind  
Wind Speed 10 mph (NNW)    
Max Wind Speed 17 mph    
Max Gust Speed 28 mph    
Visibility 8 miles    
Events Rain , Thunderstorm    
T = Trace of Precipitation, MM = Missing Value Source: NWS Daily Summary

Daily Weather History Graph

Daily Weather History Graph

Search for Another Location

Airport or City:

Trip Planner

Search our weather history database for the weather conditions in past years. The results will help you decide how hot, cold, wet, or windy it might be!

Date:

Astronomy

Apr. 19, 2013 Rise Set
Actual Time 6:27 AM CDT 7:29 PM CDT
Civil Twilight 6:02 AM CDT 7:54 PM CDT
Nautical Twilight 5:33 AM CDT 8:23 PM CDT
Astronomical Twilight 5:03 AM CDT 8:54 PM CDT
Moon 1:39 PM CDT (4/19) 2:16 AM CDT (4/19)
Length of Visible Light 13h 51m
Length of Day
13h 02m
First Quarter, 62% of the Moon is Illuminated
Apr 19
First Quarter
Apr 25
Full
May 2
Last Quarter
May 9
New
May 17
First Quarter

Hourly Weather History & Observations

Time (CDT) Temp. Dew Point Humidity Pressure Visibility Wind Dir Wind Speed Gust Speed Precip Events Conditions
12:26 AM 75.2 °F 73.4 °F 94% 29.81 in 10.0 mi South 16.1 mph 25.3 mph N/A   Overcast
12:46 AM 75.2 °F 73.4 °F 94% 29.81 in 10.0 mi South 12.7 mph 20.7 mph N/A   Overcast
12:53 AM 77.0 °F 73.9 °F 90% 29.82 in 10.0 mi South 12.7 mph 20.7 mph N/A   Overcast
1:53 AM 64.0 °F 62.1 °F 93% 29.85 in 7.0 mi NW 11.5 mph 27.6 mph 0.02 in Rain Light Rain
2:11 AM 60.8 °F 59.0 °F 94% 29.86 in 7.0 mi NNW 17.3 mph 26.5 mph 0.03 in Rain Light Rain
2:23 AM 60.8 °F 59.0 °F 94% 29.86 in 2.5 mi NNW 10.4 mph - 0.16 in Rain , Thunderstorm Rain
2:29 AM 59.0 °F 59.0 °F 100% 29.87 in 1.8 mi NNW 10.4 mph - 0.24 in Rain , Thunderstorm Heavy Rain
2:40 AM 59.0 °F 57.2 °F 94% 29.88 in 2.0 mi NW 10.4 mph 18.4 mph 0.38 in Rain , Thunderstorm Heavy Rain
2:53 AM 57.9 °F 57.9 °F 100% 29.87 in 3.0 mi North 4.6 mph 17.3 mph 0.45 in Rain , Thunderstorm Rain
3:38 AM 57.2 °F 57.2 °F 100% 29.90 in 3.0 mi NW 8.1 mph - 0.21 in Rain , Thunderstorm Rain
3:53 AM 57.0 °F 57.0 °F 100% 29.90 in 10.0 mi NNW 8.1 mph - 0.21 in Rain , Thunderstorm Light Rain
4:24 AM 57.2 °F 55.4 °F 94% 29.90 in 10.0 mi NNW 8.1 mph - 0.01 in Rain Light Rain
4:53 AM 55.9 °F 55.9 °F 100% 29.90 in 10.0 mi NNW 9.2 mph - 0.02 in Rain Light Rain
5:36 AM 53.6 °F 53.6 °F 100% 29.94 in 10.0 mi NNW 10.4 mph 19.6 mph 0.02 in Rain , Thunderstorm Light Rain
5:53 AM 53.1 °F 52.0 °F 96% 29.93 in 3.0 mi NNW 13.8 mph 19.6 mph 0.11 in Rain , Thunderstorm Heavy Thunderstorms and Rain
6:01 AM 53.6 °F 51.8 °F 94% 29.93 in 4.0 mi NNW 8.1 mph 19.6 mph 0.02 in Rain , Thunderstorm Thunderstorms and Rain
6:19 AM 53.6 °F 51.8 °F 94% 29.96 in 6.0 mi Variable 6.9 mph - 0.06 in Rain Light Rain
6:53 AM 52.0 °F 51.1 °F 97% 30.04 in 10.0 mi WNW 5.8 mph 18.4 mph 0.06 in   Overcast
7:10 AM 51.8 °F 48.2 °F 88% 30.08 in 10.0 mi NNW 5.8 mph - N/A   Overcast
7:15 AM 51.8 °F 48.2 °F 88% 30.07 in 10.0 mi NNW 6.9 mph - N/A Thunderstorm Overcast
7:25 AM 51.8 °F 48.2 °F 88% 30.06 in 10.0 mi NNW 10.4 mph - N/A Thunderstorm Overcast
7:36 AM 51.8 °F 48.2 °F 88% 30.10 in 10.0 mi Variable 4.6 mph - N/A   Overcast
7:53 AM 51.1 °F 48.0 °F 89% 30.07 in 10.0 mi NNW 9.2 mph - N/A   Overcast
8:35 AM 51.8 °F 48.2 °F 88% 30.08 in 10.0 mi North 8.1 mph - 0.00 in   Overcast
8:53 AM 51.1 °F 48.0 °F 89% 30.12 in 10.0 mi NNW 5.8 mph - 0.00 in   Overcast
9:14 AM 51.8 °F 46.4 °F 82% 30.10 in 10.0 mi North 9.2 mph - N/A   Overcast
9:53 AM 50.0 °F 45.0 °F 83% 30.10 in 10.0 mi NNW 9.2 mph 17.3 mph 0.00 in   Mostly Cloudy
10:53 AM 50.0 °F 41.0 °F 71% 30.07 in 10.0 mi NNW 12.7 mph 19.6 mph 0.00 in   Overcast
11:53 AM 50.0 °F 42.1 °F 74% 30.10 in 10.0 mi North 11.5 mph 17.3 mph 0.00 in   Overcast
12:53 PM 50.0 °F 45.0 °F 83% 30.09 in 10.0 mi Variable 3.5 mph - 0.02 in Rain Light Rain
1:53 PM 53.1 °F 44.1 °F 71% 30.06 in 10.0 mi NNW 5.8 mph - 0.00 in   Clear
2:53 PM 54.0 °F 43.0 °F 66% 30.09 in 10.0 mi NNW 8.1 mph - N/A   Partly Cloudy
3:53 PM 53.1 °F 41.0 °F 64% 30.06 in 10.0 mi North 9.2 mph - N/A   Clear
4:53 PM 55.9 °F 44.1 °F 64% 30.04 in 10.0 mi North 10.4 mph - N/A   Clear
5:53 PM 59.0 °F 44.1 °F 58% 30.06 in 10.0 mi Variable 5.8 mph - N/A   Clear
6:53 PM 57.9 °F 46.0 °F 65% 30.08 in 10.0 mi Calm Calm - N/A   Clear
7:53 PM 51.1 °F 48.9 °F 92% 30.11 in 10.0 mi Calm Calm - N/A   Clear
8:53 PM 48.9 °F 46.9 °F 93% 30.14 in 10.0 mi Calm Calm - N/A   Clear
9:53 PM 48.9 °F 45.0 °F 86% 30.16 in 10.0 mi Calm Calm - N/A   Clear
10:53 PM 46.9 °F 45.0 °F 93% 30.18 in 10.0 mi Calm Calm - N/A   Clear
11:53 PM 45.0 °F 43.0 °F 93% 30.20 in 10.0 mi Calm Calm - N/A   Clear